Home   Weather   Marchtrenk   Past weeks

Flag for Austria Past Weather in Marchtrenk, Upper Austria, Austria — Yesterday and Last 2 Weeks

Now
21 °F

Cold.


Feels Like: 16 °F
Forecast: 27 / 38 °F
Wind: 3 mph from Northeast

Location: Linz / Hoersching-Flughafen

Current Time: Dec 4, 2016 at 3:09:56 am

Latest Report: Dec 4, 2016 at 2:50 am


Visibility: N/A

Pressure: 30.33 "Hg

Humidity: 86%

Dew Point: 18 °F

Location of MarchtrenkLocation

Past Weather in Marchtrenk — Graph

°F

Marchtrenk Temperature Yesterday

Maximum temperature yesterday: 36 °F (at 2:20 pm)
Minimum temperature yesterday: 23 °F (at 6:50 am)
Average temperature yesterday: 27 °F

High & Low Weather Summary for the Past Weeks

 TemperatureHumidityPressure
High59 °F (Nov 21, 2:20 pm)100% (Nov 19, 1:20 am)30.54 "Hg (Nov 19, 1:20 am)
Low19 °F (Nov 30, 3:50 am)44% (Nov 28, 12:50 pm)29.74 "Hg (Nov 21, 2:20 pm)
Average38 °F86%30.11 "Hg
* Reported Nov 19 1:20 am — Dec 4 1:50 am, Marchtrenk, Weather by CustomWeather, © 2016

Note: Actual official high and low records may vary slightly from our data, if they occured in-between our weather recording intervals... More about our weather records

Advertising

Marchtrenk Weather History for the Previous 24 Hours

Scroll right to see more
 ConditionsComfort  
Time TempWeatherWind HumidityBarometerVisibility
1:50 am
Sun, Dec 4
23 °FCold.5 mph86%30.33 "HgN/A
1:20 am23 °FCold.5 mph86%30.30 "HgN/A
12:50 am23 °FCold.2 mph93%30.30 "HgN/A
12:20 am25 °FCold.6 mph80%30.30 "HgN/A
11:50 pm
Sat, Dec 3
25 °FCold.5 mph86%30.30 "HgN/A
10:50 pm27 °FChilly.6 mph80%30.30 "HgN/A
10:20 pm27 °FChilly.6 mph86%30.30 "HgN/A
9:50 pm27 °FChilly.8 mph86%30.30 "HgN/A
9:20 pm27 °FChilly.7 mph86%30.30 "HgN/A
8:50 pm27 °FChilly.6 mph86%30.30 "HgN/A
8:20 pm27 °FChilly.5 mph93%30.27 "HgN/A
7:50 pm28 °FChilly.6 mph86%30.27 "HgN/A
7:20 pm27 °FChilly.7 mph93%30.27 "HgN/A
6:50 pm28 °FChilly.6 mph86%30.27 "HgN/A
6:20 pm28 °FPassing clouds.7 mph93%30.27 "HgN/A
5:50 pm28 °FClear.7 mph93%30.27 "Hg10 mi
5:20 pm28 °FClear.8 mph86%30.27 "Hg10 mi
4:50 pm28 °FClear.8 mph86%30.27 "Hg10 mi
4:20 pm30 °FClear.7 mph86%30.24 "Hg10 mi
3:50 pm32 °FSunny.7 mph80%30.24 "Hg10 mi
3:20 pm36 °FSunny.6 mph70%30.24 "Hg10 mi
2:50 pm36 °FSunny.7 mph70%30.24 "Hg10 mi
2:20 pm36 °FSunny.6 mph93%30.24 "Hg10 mi
1:50 pm34 °FPassing clouds.8 mph93%30.24 "HgN/A
1:20 pm32 °FPassing clouds.6 mph93%30.24 "HgN/A
12:50 pm32 °FPassing clouds.7 mph93%30.24 "HgN/A
12:20 pm30 °FPassing clouds.6 mph93%30.27 "HgN/A
11:50 am30 °FPassing clouds.3 mph93%30.27 "HgN/A
11:20 am28 °FPassing clouds.3 mph100%30.27 "Hg4 mi
10:50 am27 °FLight freezing rain. Scattered clouds.2 mph100%30.27 "Hg1 mi
10:20 am25 °FIce fog.1 mph100%30.27 "Hg0 mi
9:50 am23 °FIce fog.2 mph100%30.27 "Hg0 mi
9:20 am23 °FIce fog.1 mph100%30.27 "Hg0 mi
8:50 am23 °FIce fog.1 mph100%30.24 "Hg0 mi
8:20 am23 °FIce fog.No wind93%30.24 "Hg0 mi
7:50 am23 °FIce fog.1 mph100%30.24 "Hg0 mi
7:20 am23 °FIce fog.1 mph93%30.24 "Hg0 mi
6:50 am23 °FIce fog.1 mph100%30.24 "Hg0 mi
6:20 am25 °FIce fog.2 mph93%30.21 "Hg0 mi
5:50 am25 °FIce fog.2 mph93%30.21 "Hg0 mi
5:20 am25 °FIce fog.1 mph100%30.21 "Hg0 mi
4:50 am25 °FIce fog.1 mph100%30.21 "Hg0 mi
4:20 am25 °FIce fog.1 mph93%30.21 "Hg0 mi
3:50 am25 °FIce fog.1 mph100%30.21 "Hg0 mi
3:20 am25 °FIce fog.1 mph100%30.21 "Hg0 mi
Weather by CustomWeather, © 2016

See weather overviewHow to use our weather pages